User: anonymous   Login
Location: Wildlife_Club
(35.6000°N, 81.4330°W)
Time: 15:27:22
(UTC-05:00)
Language:

Cosmos 1782 - Orbit

View from above orbital plane
View from above orbital plane
View from above satellite
View from above satellite

Ground track
Ground track

The orbit data is extracted from the following two-line orbital elements,

1 16986U 86074A   14331.45349940  .00004500  00000-0  32598-3 0  9073
2 16986 082.5069 307.3053 0009585 286.6165 073.4008 15.03728688530507
Epoch (UTC): 27 November 2014 10:53:02
Eccentricity: 0.0009585
inclination: 82.5069°
perigee height: 549 km
apogee height: 562 km
right ascension of ascending node: 307.3053°
argument of perigee: 286.6165°
revolutions per day: 15.03728688
mean anomaly at epoch: 73.4008°
orbit number at epoch: 53050

The dashed part of the orbit path shows where the satellite is in the earth's shadow,  

DLR